This demonstration page uses our WeatherBlox Daily Observations layout. Learn more.

Left ArrowRight Arrow

44.89941, -97.11507

Hourly Observations for September 9, 2018

Temp ( °F °C ) Dew Point ( °F °C ) Humidity (%) Winds ( mph kmh ) Pressure ( in mb ) Visibility ( mi km ) Precip ( " mm )
12:53 am 00:53 Clear 55 12.8 50 10 83 83 SSE 10 17 30.06 1018 10 16 0.00 0.00
1:53 am 01:53 Clear 55 12.8 50 10 83 83 SSE 12 19 30.05 1018 10 16 0.00 0.00
2:53 am 02:53 Clear 54 12.2 50 10 87 87 SSE 10 17 30.02 1017 10 16 0.00 0.00
3:53 am 03:53 Clear 54 12.2 50 10 87 87 SSE 14 22 30.01 1016 10 16 0.00 0.00
4:53 am 04:53 Clear 53 11.7 50 10 89 89 SSE 8 13 30.01 1016 10 16 0.00 0.00
5:53 am 05:53 Clear 52 11.1 50 10 93 93 SE 7 11 30.01 1016 10 16 0.00 0.00
6:53 am 06:53 Clear 52 11.1 50 10 93 93 SSE 10 17 30.01 1016 10 16 0.00 0.00
7:53 am 07:53 Sunny 53 11.7 50 10 89 89 SSE 13 20 30.01 1016 10 16 0.00 0.00
8:24 am 08:24 Mostly Sunny 54 12.2 51 10.6 90 90 SSE 13 20 29.97 1015 10 16 0.00 0.00
8:53 am 08:53 Sunny 54 12.2 51 10.6 90 90 SSE 13 20 30.01 1016 10 16 0.00 0.00
9:53 am 09:53 Sunny 57 13.9 52 11.1 83 83 SSE 16 26 30.00 1016 10 16 0.00 0.00
10:53 am 10:53 Sunny 61 16.1 54 12.2 78 78 SSE 16 26 29.98 1015 10 16 0.00 0.00
11:53 am 11:53 Sunny 65 18.3 56 13.3 73 73 SSE 18 30 29.97 1015 10 16 0.00 0.00
12:53 pm 12:53 Sunny 68 20 58 14.4 70 70 S 17 28 29.96 1014 10 16 0.00 0.00
1:53 pm 13:53 Mostly Sunny 69 20.6 59 15 70 70 S 16 26 29.97 1015 10 16 0.00 0.00
2:12 pm 14:12 Mostly Cloudy 69 20.6 59 15 70 70 S 17 28 29.91 1013 10 16 0.00 0.00
2:25 pm 14:25 Partly Cloudy 71 21.7 59 15 66 66 SSE 18 30 29.91 1013 10 16 0.00 0.00
2:53 pm 14:53 Partly Cloudy 72 22.2 60 15.6 66 66 SSE 18 30 29.94 1014 10 16 0.00 0.00
3:53 pm 15:53 Mostly Cloudy 71 21.7 59 15 66 66 SSE 18 30 29.92 1013 10 16 0.00 0.00
4:53 pm 16:53 Partly Cloudy 73 22.8 58 14.4 59 59 S 20 31 29.91 1013 10 16 0.00 0.00
5:53 pm 17:53 Sunny 71 21.7 58 14.4 63 63 S 18 30 29.91 1013 10 16 0.00 0.00
6:53 pm 18:53 Sunny 69 20.6 58 14.4 68 68 SSE 13 20 29.91 1013 10 16 0.00 0.00
7:53 pm 19:53 Mostly Clear 66 18.9 57 13.9 73 73 SSE 12 19 29.90 1013 10 16 0.00 0.00
8:53 pm 20:53 Cloudy 65 18.3 55 12.8 70 70 SSE 7 11 29.95 1014 10 16 0.00 0.00
9:53 pm 21:53 Cloudy 65 18.3 56 13.3 73 73 S 9 15 29.95 1014 10 16 0.00 0.00
10:53 pm 22:53 Clear 63 17.2 55 12.8 76 76 SSE 10 17 29.93 1014 10 16 0.00 0.00
11:53 pm 23:53 Mostly Clear 62 16.7 55 12.8 78 78 SSE 9 15 29.93 1014 10 16 0.00 0.00

Powered by AerisWeather